CZ-4 DEB, 26200

Orbit data source: Space-Track

CZ-4 DEB, 26200 is space debris in SSO originally from a launch on Thu, 14 Oct 1999 UTC launched from the Taiyaun Space Center, China (TSC). Debris objects in space refer to the collection of defunct objects orbiting the Earth. Examples of debris include non-operational satellites, rocket bodies, and fragments generated from explosions, collisions, or faulty payload assembly.

Loading next visibility...
Identifier
26200, 1999-057CN
Orbit
SSO
Country
Flag of CNCN / PRC
Related business
Manufacturer
Unknown
Mission
Spacecraft
Bus & Motor
Unknown
Mass
Unknown
Launch date (UTC)
1999-10-14 (26 years ago)
Launch vehicle
Unknown
Launch site
Taiyaun Space Center, China (TSC)
Object type
Payload
Rocket body
Debris
Shape & HBR
Unknown shape, 0.1 m
Radar Cross Section
Small (<0.1 m²)

Expand to show TLE details & history
Last TLE update: 7 hours ago

TLE from 7 hours ago
0 CZ-4 DEB
1 26200U 99057CN  25300.92245155  .00006559  00000-0  93936-3 0  9991
2 26200  98.2735 276.2919 0042115 331.1355  28.7525 14.76324072362226
Epoch: 2025-10-27T22:08Z
TLE epoch observation values (Epoch: 2025-10-27T22:08:19.813Z)
Latitude
0.00003°
Longitude
-92.308°
Altitude
618.064 km
Speed
7.564 km/s
True Right ascension
18h 25m 10s
True Declination
0° 00' 00"
Sunlit
Object was in daylight at epoch
Visualization orbit readout
Latitude
Unknown
Longitude
Unknown
Altitude
Unknown
Speed
Unknown
Apparent Right ascension
Unknown
Apparent Declination
Unknown
Sunlit
N/A
Visualization observer readout
Local Sidereal Time
00:21:13
Azimuth
Unknown
Elevation
Unknown
Doppler factor
Unknown
Orbital elements
Apogee altitude
667.563 km
Perigee altitude
608.466 km
Semi-major axis
7,016.151 km
Eccentricity
0.00421
Inclination
98.2735°
RAAN
276.2919°
Arg. of periapsis
331.1355°
True anomaly
28.98572°
Mean anomaly
28.7525°
Eccentric anomaly
28.869°
Mean motion
3.69313 °/min
Orbital period
97.48 mins
BSTAR
0.00093936
Loading maneuver chart data...
Computing Atmospheric mass density...
Loading historical data...
Loading historical data...
Loading historical data...
Loading historical data...
Loading historical data...
Loading historical data...
Loading historical data...

Documentation

Showing up to 5 results
|